User: anonymous
Location: Arrakis Observatory
(44.1122°N, 95.7153°W)
Time: 11:25:08
(UTC-05:00)
Language:

Coronas F rocket - Orbit

View from above orbital plane
View from above orbital plane
View from above satellite
View from above satellite

Ground track
Ground track

The orbit data is extracted from the following two-line orbital elements,

1 26874U 01032B   14105.19905423  .00014959  00000-0  25646-3 0  6538
2 26874 082.4758 049.2394 0013308 286.3476 073.6312 15.50952046711531
Epoch (UTC): 15 April 2014 04:46:38
Eccentricity: 0.0013308
inclination: 82.4758°
perigee height: 405 km
apogee height: 423 km
right ascension of ascending node: 49.2394°
argument of perigee: 286.3476°
revolutions per day: 15.50952046
mean anomaly at epoch: 73.6312°
orbit number at epoch: 71153

The dashed part of the orbit path shows where the satellite is in the earth's shadow,  

DLR